STARLINK-31588, 59335

Orbit data source: Space-Track

STARLINK-31588, 59335 is a payload satellite owned by SpaceX/Seattle (US) in LEO that was launched on Mon, 25 Mar 2024 UTC via an FALCON 9 launch vehicle from the Air Force Eastern Test Range (AFETR). Payload-class satellites include a variety of spacecraft equipped with specific instruments for various scientific and technological missions. These include communications satellites like Starlink; space stations such as the ISS; scientific satellites like the Hubble; Earth observation satellites from companies like Planet Labs, Umbra, and HawkEye 360; GPS; miniature CubeSats for education and research; and military/defense satellites.

Loading next visibility...
Identifier
59335, 2024-057R
Orbit
LEO
Country
Flag of USUS
Related business
Manufacturer
SpaceX/Seattle
Mission
Operational Commercial Communications
Bus & Motor
STARLINK V2M, Unknown motor
Mass
730 kg wet, ~700 kg dry
Launch date (UTC)
2024-03-25 (2 years ago)
Launch vehicle
FALCON 9
Launch site
Air Force Eastern Test Range (AFETR)
Object type
Payload
Rocket body
Debris
Shape & HBR
Box + 2 Pan, 17.7 m
Radar Cross Section
33.884 m², Large (>1 m²)

Expand to show TLE details & history
Last TLE update: 2 days ago

TLE from 2 days ago
0 STARLINK-31588
1 59335U 24057R   26171.15447049 -.00001238  00000-0 -35494-4 0  9999
2 59335  43.0009 328.0683 0000329 244.3006 115.7811 15.27569217125519
Epoch: 2026-06-20T03:42Z
TLE epoch observation values (Epoch: 2026-06-20T03:42:26.250Z)
Latitude
-0.00006°
Longitude
4.0857°
Altitude
482.955 km
Speed
7.626 km/s
True Right ascension
21h 52m 16s
True Declination
0° 00' 00"
Sunlit
Object was in full shadow at epoch
Visualization orbit readout
Latitude
Unknown
Longitude
Unknown
Altitude
Unknown
Speed
Unknown
Apparent Right ascension
Unknown
Apparent Declination
Unknown
Sunlit
N/A
Visualization observer readout
Local Sidereal Time
21:28:50
Azimuth
Unknown
Elevation
Unknown
Doppler factor
Unknown
Orbital elements
Apogee altitude
485.252 km
Perigee altitude
484.801 km
Semi-major axis
6,863.163 km
Eccentricity
0.00003
Inclination
43.0009°
RAAN
328.0683°
Arg. of periapsis
244.3006°
True anomaly
115.78449°
Mean anomaly
115.7811°
Eccentric anomaly
115.7828°
Mean motion
3.8173 °/min
Orbital period
94.31 mins
BSTAR
-0.000035494
Loading maneuver chart data...
Computing Atmospheric mass density...
Loading historical data...
Loading historical data...
Loading historical data...
Loading historical data...
Loading historical data...
Loading historical data...
Loading historical data...

Documentation

Showing up to 5 results
|